DW0156 Weather Reports


time (UTC)temp
C
wind
direction
speed
KPH
gust
KPH
rain 1hr
cm
rain 24hr
cm
rain mn
cm
humidity
%
barometer
mb
20260503045437 18 263 4.8 16.1 0.00 0.51 0.28 59 1010.0
20260503044932 18 263 4.8 27.4 0.00 0.56 0.28 59 1010.0
20260503044425 18 263 6.4 27.4 0.00 0.56 0.28 58 1010.0
20260503043918 19 263 6.4 27.4 0.00 0.64 0.28 57 1009.9
20260503042733 18 263 6.4 30.6 0.00 0.66 0.28 58 1010.1
20260503042213 18 263 8.0 30.6 0.00 0.66 0.28 61 1010.1
20260503041701 18 263 9.7 30.6 0.00 0.71 0.28 61 1010.1
20260503041146 18 263 8.0 30.6 0.00 0.71 0.28 60 1010.1
20260503040634 18 263 6.4 29.0 0.00 0.71 0.28 60 1010.1
20260503040114 18 263 6.4 27.4 0.00 0.71 0.28 60 1010.1
20260503035622 18 263 9.7 32.2 0.00 0.71 0.28 61 1010.2
20260503035130 18 263 11.3 32.2 0.00 0.74 0.28 60 1010.2
20260503033955 18 263 8.0 33.8 0.00 0.74 0.28 63 1010.3
20260503033500 18 263 6.4 33.8 0.00 0.74 0.28 64 1010.3
20260503033003 17 263 6.4 33.8 0.00 0.74 0.28 65 1010.3
20260503032456 17 263 8.0 27.4 0.00 0.74 0.28 69 1010.5
20260503031939 17 263 8.0 33.8 0.00 0.76 0.28 70 1010.5
20260503031439 16 263 8.0 33.8 0.00 0.76 0.28 73 1010.5
20260503030920 16 263 9.7 33.8 0.00 0.81 0.28 73 1010.9
20260503025747 16 263 6.4 25.7 0.00 0.84 0.28 72 1010.9
20260503025229 16 263 8.0 33.8 0.00 0.84 0.28 70 1010.9
20260503024724 17 263 9.7 33.8 0.00 0.81 0.28 64 1010.9
20260503024204 17 263 9.7 33.8 0.00 0.81 0.25 60 1010.6
20260503023650 18 263 6.4 33.8 0.00 0.81 0.25 60 1010.6
20260503023135 18 263 4.8 22.5 0.00 0.81 0.25 60 1010.6
20260503022640 17 263 6.4 22.5 0.00 0.81 0.25 61 1011.0
20260503022128 17 263 8.0 25.7 0.00 0.81 0.25 60 1011.0
20260503021625 17 263 6.4 25.7 0.00 0.81 0.25 62 1011.0
20260503015904 17 263 9.7 33.8 0.00 0.81 0.25 65 1010.8
20260503015403 17 263 4.8 33.8 0.00 0.81 0.25 66 1010.8
20260503014910 17 263 4.8 27.4 0.00 0.81 0.25 68 1010.8
20260503014358 16 263 4.8 27.4 0.00 0.81 0.25 69 1011.0
20260503013905 16 263 4.8 27.4 0.00 0.81 0.25 70 1011.0
20260503013359 16 263 4.8 24.1 0.00 0.81 0.25 70 1011.0
20260503010928 16 263 6.4 20.9 0.00 0.81 0.25 71 1011.1
20260503010412 15 263 4.8 20.9 0.00 0.81 0.25 72 1011.1
20260503005909 15 263 3.2 17.7 0.00 0.81 0.25 73 1011.1
20260503005405 15 263 4.8 20.9 0.00 0.81 0.25 73 1011.0
20260503004846 16 263 6.4 20.9 0.00 0.81 0.25 71 1011.0
20260503004354 16 263 4.8 29.0 0.00 0.81 0.25 69 1011.2
20260503003846 16 263 6.4 29.0 0.00 0.81 0.25 68 1011.2
20260503003338 16 263 6.4 29.0 0.00 0.81 0.25 69 1011.2
20260503002836 16 263 6.4 29.0 0.00 0.81 0.25 68 1011.2
20260503002340 16 263 4.8 30.6 0.00 0.81 0.25 68 1011.2
20260503001841 16 263 4.8 30.6 0.00 0.84 0.25 69 1011.2
20260503001331 16 263 6.4 30.6 0.00 0.84 0.25 69 1011.2
20260503000834 16 263 6.4 30.6 0.00 0.84 0.25 71 1011.2
20260503000339 16 263 6.4 25.7 0.00 0.84 0.25 72 1011.2
20260502235849 15 263 4.8 25.7 0.00 0.84 0.25 74 1011.2
20260502235336 15 263 6.4 25.7 0.00 0.84 0.23 77 1011.2
20260502234830 15 263 6.4 25.7 0.00 0.84 0.23 78 1011.2
20260502234317 14 263 4.8 19.3 0.00 0.84 0.23 80 1011.2
20260502233802 14 263 6.4 19.3 0.00 0.84 0.23 82 1011.2
20260502233303 14 263 6.4 19.3 0.00 0.84 0.23 83 1011.2
20260502232753 13 263 6.4 20.9 0.00 0.84 0.23 83 1011.3
20260502232249 13 263 4.8 20.9 0.00 0.84 0.23 85 1011.3
20260502231737 13 263 4.8 20.9 0.00 0.84 0.23 85 1011.3
20260502231246 13 263 3.2 20.9 0.00 0.84 0.23 85 1011.3
20260502230740 13 263 3.2 16.1 0.00 0.84 0.23 86 1011.3
20260502230223 13 263 3.2 16.1 0.00 0.84 0.23 86 1011.3
20260502225727 13 263 4.8 16.1 0.00 0.84 0.23 86 1011.3
20260502225220 13 263 3.2 16.1 0.00 0.84 0.23 87 1011.3
20260502224709 12 263 3.2 8.0 0.00 0.84 0.23 88 1011.3
20260502224215 12 263 3.2 14.5 0.00 0.84 0.23 88 1011.3
20260502223657 12 263 1.6 14.5 0.00 0.84 0.23 88 1011.3
20260502223140 12 263 3.2 14.5 0.00 0.84 0.23 89 1011.3
20260502222622 12 263 3.2 14.5 0.00 0.84 0.23 89 1011.2
20260502222125 12 263 3.2 12.9 0.00 0.84 0.23 89 1011.2
20260502221612 12 263 3.2 9.7 0.00 0.84 0.23 89 1011.2
20260502221118 12 263 3.2 16.1 0.00 0.84 0.23 89 1011.1
20260502220627 12 263 4.8 16.1 0.00 0.84 0.23 89 1011.1
20260502220120 12 263 6.4 16.1 0.00 0.84 0.23 89 1011.1
20260502215016 12 263 4.8 14.5 0.00 0.84 0.23 89 1011.2
20260502214502 12 263 4.8 12.9 0.00 0.84 0.23 89 1011.2
20260502214001 12 263 3.2 12.9 0.00 0.84 0.23 89 1010.9
20260502213450 12 263 4.8 9.7 0.00 0.84 0.23 89 1010.9
20260502212941 12 263 3.2 12.9 0.00 0.84 0.23 89 1010.9
20260502211819 12 263 4.8 14.5 0.08 0.84 0.23 89 1010.6
20260502211327 12 263 4.8 14.5 0.13 0.84 0.23 88 1010.2
20260502210808 12 263 4.8 16.1 0.33 0.84 0.23 88 1010.2
20260502210315 12 263 4.8 16.1 0.00 0.79 0.18 88 1010.2
20260502205806 12 263 3.2 16.1 0.00 0.79 0.18 88 1010.2
20260502205255 12 263 4.8 16.1 0.00 0.79 0.18 88 1010.2
20260502204747 12 263 3.2 14.5 0.00 0.79 0.18 88 1010.2
20260502204238 12 263 3.2 14.5 0.00 0.79 0.18 88 1010.2
20260502203740 12 263 3.2 14.5 0.00 0.79 0.18 88 1010.2
20260502203226 12 263 3.2 14.5 0.00 0.79 0.18 88 1010.2
20260502202721 12 263 3.2 14.5 0.00 0.79 0.18 89 1010.2
20260502202203 12 263 3.2 14.5 0.00 0.79 0.18 89 1010.2
20260502201709 12 263 3.2 12.9 0.00 0.79 0.18 89 1010.2
20260502200547 12 263 3.2 12.9 0.00 0.79 0.18 89 1010.2
20260502200040 12 263 4.8 12.9 0.00 0.79 0.18 89 1010.2
20260502195544 12 263 3.2 12.9 0.00 0.79 0.18 89 1010.2
20260502195048 12 263 3.2 16.1 0.00 0.79 0.18 89 1010.2
20260502194538 12 263 3.2 16.1 0.00 0.79 0.18 90 1010.2
20260502193404 12 263 3.2 16.1 0.00 0.79 0.18 89 1010.1
20260502192851 12 263 4.8 12.9 0.00 0.79 0.18 89 1010.0
20260502192338 12 263 3.2 14.5 0.00 0.79 0.18 90 1010.0
20260502191205 12 263 3.2 14.5 0.00 0.79 0.18 90 1009.8
20260502190040 12 263 3.2 9.7 0.00 0.79 0.18 90 1009.8
20260502185546 12 263 3.2 9.7 0.00 0.79 0.18 90 1009.8
20260502185045 12 263 3.2 9.7 0.00 0.79 0.18 90 1009.8
20260502183922 12 263 3.2 9.7 0.00 0.79 0.18 90 1009.8
20260502182816 12 263 1.6 11.3 0.00 0.79 0.18 89 1009.7
20260502182256 12 263 3.2 11.3 0.00 0.79 0.18 89 1009.7
20260502181754 12 263 3.2 11.3 0.00 0.79 0.18 89 1009.7
20260502181247 12 263 3.2 9.7 0.00 0.79 0.18 89 1009.7
20260502180730 12 263 3.2 9.7 0.00 0.79 0.18 89 1009.7
20260502180235 12 263 1.6 9.7 0.00 0.79 0.18 89 1009.7
20260502170114 13 263 3.2 9.7 0.00 0.76 0.15 87 1009.9
20260502164138 13 263 3.2 12.9 0.23 0.76 0.15 85 1010.1
20260502163022 13 263 3.2 14.5 3.00 0.61 0.05 83 1010.1
20260502162521 14 263 3.2 14.5 0.00 0.61 0.00 82 1010.1
20260502161407 14 263 1.6 8.0 0.00 0.61 0.00 81 1010.2
20260502160242 14 263 1.6 6.4 0.00 0.61 0.00 81 1010.2
20260502152108 15 263 1.6 9.7 0.00 0.61 0.00 79 1010.4
20260502151606 15 263 1.6 9.7 0.00 0.61 0.00 80 1010.4
20260502151059 15 263 1.6 9.7 0.00 0.61 0.00 80 1010.6
20260502150542 15 263 0.0 8.0 0.00 0.61 0.00 81 1010.6
20260502130501 14 263 3.2 12.9 0.00 0.61 0.61 91 1011.1
20260502123701 14 263 3.2 9.7 0.00 0.61 0.61 91 1011.2
20260502123206 14 263 3.2 8.0 0.00 0.61 0.61 91 1011.2
20260502122657 14 263 1.6 9.7 0.00 0.61 0.61 91 1011.2
20260502122139 14 263 1.6 9.7 0.00 0.61 0.61 91 1011.2
20260502121646 14 263 3.2 9.7 0.00 0.61 0.61 91 1011.2
20260502121139 15 263 3.2 9.7 0.00 0.61 0.61 91 1011.1
20260502120626 15 263 3.2 16.1 0.00 0.61 0.61 91 1011.1
20260502120128 15 263 3.2 16.1 0.00 0.61 0.61 91 1011.1
20260502115632 15 263 3.2 16.1 0.00 0.61 0.61 91 1011.1
20260502115117 15 263 3.2 16.1 0.00 0.61 0.61 91 1011.1
20260502114004 15 263 3.2 14.5 0.00 0.61 0.61 91 1010.9
20260502113508 15 263 3.2 14.5 0.00 0.61 0.61 91 1010.9
20260502112410 15 263 3.2 14.5 0.00 0.61 0.61 91 1010.7
20260502111851 15 263 3.2 14.5 0.00 0.61 0.61 92 1010.7
20260502111346 15 263 4.8 12.9 0.00 0.61 0.61 92 1010.5
20260502110226 14 263 3.2 11.3 0.00 0.61 0.61 92 1010.5
20260502105712 14 263 3.2 11.3 0.00 0.61 0.61 92 1010.6
20260502105214 14 263 3.2 12.9 0.00 0.61 0.61 92 1010.6
20260502104719 14 263 3.2 12.9 0.00 0.61 0.61 92 1010.6
20260502104209 14 263 3.2 12.9 0.00 0.61 0.61 92 1010.3
20260502103717 14 263 3.2 12.9 0.00 0.61 0.61 92 1010.3
20260502103159 14 263 1.6 8.0 0.00 0.61 0.61 92 1010.3
20260502102049 14 263 1.6 8.0 0.00 0.61 0.61 92 1010.1
20260502101535 14 263 1.6 6.4 0.00 0.61 0.61 92 1010.1
20260502101032 14 263 1.6 8.0 0.00 0.61 0.61 92 1010.2
20260502100527 14 263 1.6 8.0 0.00 0.58 0.61 92 1010.2
20260502091512 15 263 0.0 6.4 0.00 0.58 0.58 92 1010.0
20260502091006 15 263 1.6 8.0 0.00 0.58 0.58 92 1009.9
20260502090454 15 263 1.6 8.0 0.00 0.58 0.58 91 1009.9
20260502071036 15 263 1.6 22.5 0.08 0.58 0.58 90 1009.9
20260502070538 15 263 3.2 22.5 0.15 0.58 0.58 90 1009.9
20260502070036 15 263 3.2 22.5 0.15 0.58 0.58 90 1009.9
20260502065522 15 263 3.2 12.9 0.00 0.56 0.56 90 1009.9
20260502065007 15 263 4.8 12.9 0.00 0.56 0.56 90 1009.9
20260502064510 15 263 3.2 12.9 0.00 0.56 0.56 90 1009.9
20260502064005 15 263 3.2 8.0 0.00 0.56 0.56 90 1009.4
20260502063506 15 263 1.6 8.0 0.00 0.56 0.56 90 1009.4
20260502062346 15 263 1.6 8.0 0.00 0.56 0.56 89 1009.1
20260502061214 16 263 1.6 8.0 0.08 0.56 0.56 89 1009.3
20260502060043 16 263 1.6 8.0 0.10 0.53 0.53 89 1009.3
20260502054905 16 263 0.0 9.7 0.18 0.51 0.51 89 1009.5
20260502053740 16 263 0.0 3.2 0.15 0.46 0.46 89 1009.5
20260502053250 16 263 0.0 4.8 0.08 0.46 0.46 88 1009.5
20260502052137 16 263 0.0 9.7 0.10 0.43 0.43 88 1009.1
20260502051636 16 263 1.6 9.7 0.10 0.43 0.43 88 1009.1
20260502051125 16 263 1.6 9.7 0.13 0.41 0.41 88 1009.3
20260502050634 16 263 0.0 8.0 0.25 0.41 0.41 87 1009.3
20260502050129 16 263 0.0 8.0 0.18 0.38 0.38 87 1009.3